When you browse on this site, cookies collect data to enhance your experience and personalize the content and advertising you see.
Visit our Privacy Policy to learn more. By continuing to use the site, you agree to this use of cookies and data.
  • In Spain
  • List of Countries
  • For 7 days
  • Water Temperature
  • Satellite Maps
  • Weather Map
  • Weather Widgets
  • user-avatar
    Login

    Hourly Weather Jablanac

    Today, 26 June, Wednesday

    Time Temperature Precipitation Wind Pressure Humidity
    00:00 +25°C° 0 mm 5 mps 761 mmHg 88%
    01:00 +25°C° 0 mm 5 mps 761 mmHg 88%
    02:00 +23°C° 0 mm 5 mps 761 mmHg 88%
    03:00 +23°C° 0 mm 5 mps 761 mmHg 88%
    04:00 +23°C° 0 mm 5 mps 761 mmHg 88%
    05:00 +25°C° 0 mm 5 mps 761 mmHg 84%
    06:00 +26°C° 0 mm 5 mps 761 mmHg 81%
    07:00 +27°C° 0 mm 5 mps 761 mmHg 77%
    08:00 +28°C° 0 mm 4 mps 761 mmHg 71%
    09:00 +30°C° 0 mm 3 mps 761 mmHg 65%
    10:00 +31°C° 0 mm 2 mps 761 mmHg 59%
    11:00 +32°C° 0 mm 2 mps 761 mmHg 58%
    12:00 +34°C° 0 mm 2 mps 761 mmHg 57%
    13:00 +34°C° 0 mm 2 mps 761 mmHg 56%
    14:00 +34°C° 0 mm 2 mps 761 mmHg 56%
    15:00 +34°C° 0 mm 2 mps 760 mmHg 57%
    16:00 +34°C° 0 mm 2 mps 760 mmHg 58%
    17:00 +32°C° 0 mm 2 mps 760 mmHg 64%
    18:00 +30°C° 0 mm 2 mps 760 mmHg 70%
    19:00 +29°C° 0 mm 2 mps 760 mmHg 77%
    20:00 +28°C° 0 mm 2 mps 760 mmHg 75%
    21:00 +27°C° 0 mm 3 mps 760 mmHg 73%
    22:00 +26°C° 0 mm 3 mps 760 mmHg 72%
    23:00 +26°C° 0 mm 3 mps 760 mmHg 70%

    Tomorrow, 27 June, Thursday

    Time Temperature Precipitation Wind Pressure Humidity
    00:00 +26°C° 0 mm 3 mps 760 mmHg 68%
    01:00 +26°C° 0 mm 3 mps 760 mmHg 66%
    02:00 +26°C° 0 mm 3 mps 759 mmHg 66%
    03:00 +26°C° 0 mm 3 mps 759 mmHg 65%
    04:00 +26°C° 0 mm 3 mps 759 mmHg 64%
    05:00 +27°C° 0 mm 3 mps 759 mmHg 63%
    06:00 +29°C° 0 mm 2 mps 759 mmHg 62%
    07:00 +30°C° 0 mm 2 mps 759 mmHg 61%
    08:00 +32°C° 0 mm 2 mps 758 mmHg 54%
    09:00 +35°C° 0 mm 2 mps 758 mmHg 47%
    10:00 +37°C° 0 mm 2 mps 758 mmHg 39%
    11:00 +37°C° 0 mm 2 mps 757 mmHg 39%
    12:00 +38°C° 0 mm 2 mps 757 mmHg 38%
    13:00 +39°C° 0 mm 3 mps 757 mmHg 38%
    14:00 +39°C° 0 mm 3 mps 756 mmHg 40%
    15:00 +38°C° 0 mm 2 mps 756 mmHg 42%
    16:00 +38°C° 0 mm 2 mps 756 mmHg 44%
    17:00 +36°C° 0 mm 2 mps 755 mmHg 53%
    18:00 +34°C° 0 mm 2 mps 755 mmHg 62%
    19:00 +31°C° 0 mm 1 mps 755 mmHg 70%
    20:00 +29°C° 0.1 mm 2 mps 755 mmHg 74%
    21:00 +28°C° 0.1 mm 2 mps 755 mmHg 77%
    22:00 +27°C° 0.1 mm 3 mps 756 mmHg 81%
    23:00 +26°C° 0.2 mm 5 mps 756 mmHg 85%

    Day after tomorrow, 28 June, Friday

    Time Temperature Precipitation Wind Pressure Humidity
    00:00 +24°C° 0.2 mm 7 mps 756 mmHg 88%
    01:00 +24°C° 0.2 mm 9 mps 756 mmHg 92%
    02:00 +23°C° 0 mm 9 mps 756 mmHg 85%
    03:00 +22°C° 0 mm 9 mps 756 mmHg 77%
    04:00 +21°C° 0 mm 9 mps 756 mmHg 70%
    05:00 +21°C° 0 mm 8 mps 757 mmHg 67%
    06:00 +22°C° 0 mm 8 mps 757 mmHg 63%
    07:00 +23°C° 0 mm 8 mps 757 mmHg 60%
    08:00 +24°C° 0 mm 7 mps 757 mmHg 57%
    09:00 +27°C° 0 mm 7 mps 757 mmHg 53%
    10:00 +28°C° 0 mm 6 mps 757 mmHg 50%
    11:00 +29°C° 0 mm 5 mps 757 mmHg 49%
    12:00 +29°C° 0 mm 4 mps 757 mmHg 48%
    13:00 +30°C° 0 mm 4 mps 757 mmHg 48%
    14:00 +30°C° 0 mm 3 mps 756 mmHg 49%
    15:00 +30°C° 0 mm 3 mps 756 mmHg 51%
    16:00 +29°C° 0 mm 3 mps 756 mmHg 52%
    17:00 +28°C° 0 mm 3 mps 756 mmHg 58%
    18:00 +26°C° 0 mm 4 mps 756 mmHg 64%
    19:00 +25°C° 0 mm 5 mps 757 mmHg 69%
    20:00 +23°C° 0 mm 5 mps 757 mmHg 70%
    21:00 +22°C° 0 mm 6 mps 757 mmHg 71%
    22:00 +21°C° 0 mm 6 mps 758 mmHg 72%
    23:00 +21°C° 0 mm 6 mps 758 mmHg 70%

    29 June, Saturday

    Time Temperature Precipitation Wind Pressure Humidity
    00:00 +21°C° 0 mm 6 mps 758 mmHg 69%
    01:00 +20°C° 0 mm 5 mps 758 mmHg 68%
    02:00 +20°C° 0 mm 5 mps 758 mmHg 72%
    03:00 +20°C° 0 mm 5 mps 758 mmHg 77%
    04:00 +19°C° 0 mm 5 mps 758 mmHg 81%
    05:00 +20°C° 0 mm 5 mps 758 mmHg 78%
    06:00 +21°C° 0 mm 5 mps 758 mmHg 76%
    07:00 +22°C° 0 mm 5 mps 758 mmHg 73%
    08:00 +25°C° 0 mm 5 mps 758 mmHg 66%
    09:00 +26°C° 0 mm 5 mps 758 mmHg 59%
    10:00 +27°C° 0 mm 5 mps 758 mmHg 53%
    11:00 +28°C° 0 mm 4 mps 758 mmHg 51%
    12:00 +29°C° 0 mm 4 mps 758 mmHg 49%
    13:00 +29°C° 0 mm 4 mps 758 mmHg 47%
    14:00 +29°C° 0 mm 4 mps 758 mmHg 48%
    15:00 +29°C° 0 mm 3 mps 758 mmHg 49%
    16:00 +29°C° 0 mm 3 mps 757 mmHg 50%
    17:00 +28°C° 0 mm 4 mps 758 mmHg 57%
    18:00 +26°C° 0 mm 4 mps 758 mmHg 64%
    19:00 +23°C° 0 mm 4 mps 758 mmHg 70%
    20:00 +22°C° 0 mm 4 mps 758 mmHg 71%
    21:00 +21°C° 0 mm 5 mps 758 mmHg 72%
    22:00 +20°C° 0 mm 5 mps 758 mmHg 72%
    23:00 +20°C° 0 mm 5 mps 758 mmHg 71%

    30 June, Sunday

    Time Temperature Precipitation Wind Pressure Humidity
    00:00 +20°C° 0 mm 5 mps 758 mmHg 69%
    01:00 +20°C° 0 mm 5 mps 758 mmHg 68%
    02:00 +20°C° 0 mm 5 mps 758 mmHg 72%
    03:00 +19°C° 0 mm 5 mps 758 mmHg 76%
    04:00 +19°C° 0 mm 4 mps 758 mmHg 80%
    05:00 +20°C° 0 mm 4 mps 758 mmHg 76%
    06:00 +22°C° 0 mm 4 mps 758 mmHg 72%
    07:00 +23°C° 0 mm 4 mps 758 mmHg 67%
    08:00 +26°C° 0 mm 3 mps 759 mmHg 60%
    09:00 +28°C° 0 mm 2 mps 759 mmHg 54%
    10:00 +30°C° 0 mm 2 mps 759 mmHg 47%
    11:00 +30°C° 0 mm 2 mps 759 mmHg 46%
    12:00 +31°C° 0 mm 2 mps 759 mmHg 45%
    13:00 +32°C° 0 mm 2 mps 758 mmHg 44%
    14:00 +32°C° 0 mm 2 mps 758 mmHg 45%
    15:00 +32°C° 0 mm 2 mps 758 mmHg 47%
    16:00 +31°C° 0 mm 2 mps 758 mmHg 48%
    17:00 +30°C° 0 mm 1 mps 758 mmHg 57%
    18:00 +28°C° 0 mm 1 mps 758 mmHg 66%
    19:00 +26°C° 0 mm 1 mps 758 mmHg 75%
    20:00 +25°C° 0 mm 1 mps 758 mmHg 73%
    21:00 +24°C° 0 mm 1 mps 758 mmHg 70%
    22:00 +23°C° 0 mm 2 mps 758 mmHg 68%
    23:00 +23°C° 0 mm 2 mps 758 mmHg 65%

    1 July, Monday

    Time Temperature Precipitation Wind Pressure Humidity
    00:00 +23°C° 0 mm 2 mps 758 mmHg 62%
    01:00 +23°C° 0 mm 2 mps 758 mmHg 59%
    02:00 +23°C° 0 mm 2 mps 758 mmHg 57%
    03:00 +23°C° 0 mm 1 mps 757 mmHg 55%
    04:00 +23°C° 0 mm 1 mps 757 mmHg 52%
    05:00 +24°C° 0 mm 1 mps 757 mmHg 52%
    06:00 +26°C° 0 mm 1 mps 757 mmHg 52%
    07:00 +28°C° 0 mm 1 mps 757 mmHg 51%
    08:00 +29°C° 0 mm 1 mps 757 mmHg 48%
    09:00 +31°C° 0 mm 1 mps 757 mmHg 44%
    10:00 +34°C° 0 mm 2 mps 757 mmHg 40%
    11:00 +34°C° 0 mm 2 mps 757 mmHg 41%
    12:00 +34°C° 0 mm 2 mps 757 mmHg 42%
    13:00 +34°C° 0 mm 2 mps 757 mmHg 43%
    14:00 +34°C° 0 mm 2 mps 756 mmHg 46%
    15:00 +32°C° 0 mm 2 mps 756 mmHg 49%
    16:00 +32°C° 0 mm 2 mps 755 mmHg 51%
    17:00 +30°C° 0 mm 2 mps 755 mmHg 60%
    18:00 +28°C° 0 mm 2 mps 755 mmHg 69%
    19:00 +26°C° 0 mm 2 mps 755 mmHg 78%
    20:00 +25°C° 0 mm 2 mps 755 mmHg 74%
    21:00 +24°C° 0 mm 2 mps 756 mmHg 71%
    22:00 +23°C° 0 mm 2 mps 756 mmHg 67%
    23:00 +21°C° 0 mm 2 mps 756 mmHg 68%
    Show more